{"data":{"norad_id":65595,"epoch":"2026-09-20T22:00:03.000096Z","epoch_age_seconds":75922,"freshness":"FRESH","line1":"1 65595U 25207D   26263.91670139 -.00004359  00000+0 -13286-3 0  9996","line2":"2 65595  97.2860 326.4499 0001477  95.5138 230.0451 15.33422597  5743","mean_motion":15.33422597,"eccentricity":0.0001477,"inclination_deg":97.286,"raan_deg":326.4499,"arg_perigee_deg":95.5138,"mean_anomaly_deg":230.0451,"bstar":-0.00013286,"rev_number":574,"period_min":93.907576607859,"perigee_km":464.59900944888,"apogee_km":466.62065226272,"semimajor_km":6843.7468308558,"source":"CELESTRAK","updated_at":"2026-09-21T09:00:35.653333Z"}}